Home > Weather > Poland > Gdańsk > Past weeks

Flag for Poland Weather past 2 weeks in Gdańsk, Poland

39 °F

Passing clouds.

Feels Like: 31 °F
Forecast: 38 / 47 °F
Wind: 14 mph from West

Location: Gdansk-Rebiechowo

Current Time: Dec 1, 2015 at 7:45:07 PM

Latest Report: Dec 1, 2015 at 7:00 PM

Visibility: N/A

Pressure: 29.92 "Hg

Humidity: 70%

Dew point: 30 °F

Location of GdańskLocation

Historic Weather in Gdańsk — Graph


Gdańsk temperature yesterday

Maximum temperature yesterday: 43 °F (at 12:00 AM)
Minimum temperature yesterday: 37 °F (at 3:00 PM)
Average temperature yesterday: 39 °F

Past Weeks' High & Low Weather Summary

High52 °F (Nov 18, 2:00 AM)100% (Nov 16, 7:30 PM)30.12 "Hg (Nov 16, 7:30 PM)
Low27 °F (Nov 25, 7:00 AM)65% (Nov 21, 1:30 PM)29.27 "Hg (Nov 18, 6:00 AM)
Average38 °F88%29.67 "Hg
* Reported Nov 16 6:00 PM — Dec 1 6:30 PM, Gdańsk, Weather by CustomWeather, © 2015

Note: Actual official high and low records may vary slightly from our data, if they occured in-between our weather recording intervals... More about our weather records


Gdańsk weather history for previous 24 hours

Time TempWeatherWind HumidityBarometerVisibility
6:30 PM
Tue, Dec 1
39 °FPassing clouds.13 mph75%29.89 "HgN/A
6:00 PM39 °FPassing clouds.13 mph75%29.89 "HgN/A
5:30 PM39 °FPassing clouds.12 mph81%29.86 "HgN/A
5:00 PM39 °FPassing clouds.14 mph81%29.83 "HgN/A
4:30 PM39 °FPassing clouds.14 mph81%29.83 "HgN/A
4:00 PM39 °FPassing clouds.17 mph81%29.83 "HgN/A
3:30 PM39 °FSprinkles. Partly cloudy.16 mph87%29.80 "HgN/A
3:00 PM39 °FSprinkles. Scattered clouds.17 mph87%29.80 "HgN/A
2:30 PM39 °FScattered clouds.23 mph87%29.77 "HgN/A
2:00 PM39 °FSnow showers. Broken clouds.24 mph81%29.74 "Hg5 mi
1:30 PM41 °FSprinkles. Broken clouds.18 mph81%29.74 "Hg5 mi
1:00 PM41 °FSprinkles. Scattered clouds.16 mph81%29.71 "HgN/A
12:30 PM41 °FSprinkles. Scattered clouds.17 mph81%29.71 "HgN/A
12:00 PM41 °FSprinkles. Partly sunny.21 mph81%29.71 "HgN/A
11:30 AM41 °FSprinkles. Scattered clouds.22 mph87%29.68 "HgN/A
11:00 AM39 °FSprinkles. Partly sunny.18 mph87%29.68 "Hg4 mi
10:30 AM39 °FSprinkles. Scattered clouds.18 mph87%29.68 "HgN/A
10:00 AM39 °FPassing clouds.16 mph87%29.65 "HgN/A
9:00 AM37 °FSprinkles. Scattered clouds.20 mph87%29.65 "Hg5 mi
8:30 AM37 °FScattered clouds.16 mph93%29.62 "HgN/A
8:00 AM37 °FRain showers. Broken clouds.17 mph87%29.62 "HgN/A
7:00 AM36 °FPartly cloudy.10 mph93%29.59 "HgN/A
6:30 AM36 °FPartly cloudy.9 mph93%29.56 "HgN/A
6:00 AM36 °FLight rain. Partly cloudy.13 mph87%29.56 "HgN/A
5:30 AM34 °FLight rain. Partly cloudy.17 mph100%29.56 "Hg4 mi
5:00 AM34 °FLight rain. Partly cloudy.15 mph93%29.56 "Hg2 mi
4:30 AM34 °FLight snow. Partly cloudy.13 mph93%29.56 "Hg4 mi
4:00 AM34 °FLight rain. Partly cloudy.7 mph93%29.53 "Hg4 mi
3:30 AM36 °FLight rain. Partly cloudy.6 mph93%29.53 "HgN/A
3:00 AM36 °FPartly cloudy.7 mph93%29.53 "HgN/A
2:00 AM37 °FLight rain. Passing clouds.13 mph87%29.53 "HgN/A
1:00 AM36 °FLight rain. Passing clouds.6 mph93%29.53 "HgN/A
12:30 AM36 °FLight rain. Passing clouds.9 mph93%29.56 "HgN/A
12:00 AM36 °FSprinkles. Passing clouds.10 mph93%29.56 "HgN/A
11:30 PM
Mon, Nov 30
37 °FSprinkles. Passing clouds.9 mph87%29.53 "HgN/A
11:00 PM37 °FSprinkles. Passing clouds.16 mph87%29.53 "HgN/A
10:30 PM37 °FPassing clouds.16 mph87%29.56 "HgN/A
10:00 PM37 °FSprinkles. Passing clouds.15 mph87%29.56 "HgN/A
9:30 PM37 °FPassing clouds.15 mph87%29.56 "HgN/A
9:00 PM37 °FPassing clouds.17 mph87%29.56 "HgN/A
8:30 PM37 °FPassing clouds.18 mph87%29.56 "HgN/A
8:00 PM37 °FPassing clouds.16 mph87%29.56 "HgN/A
7:30 PM37 °FSprinkles. Passing clouds.15 mph87%29.59 "HgN/A
7:00 PM37 °FSprinkles. Passing clouds.17 mph87%29.59 "HgN/A
Weather by CustomWeather, © 2015

See weather overviewHow to use our weather pages